Flag for Poland Weather past 2 weeks in Dąbrowa Górnicza, Poland

Now
59 °F

Passing clouds.


Feels Like: 57 °F
Forecast: 49 / 60 °F
Wind: 10 mph from Northeast

Location: Katowice Airport

Current Time: May 22, 2015 at 3:20:41 PM

Latest Report: May 22, 2015 at 3:00 PM


Visibility: N/A

Pressure: 30.21 "Hg

Humidity: 63%

Dew point: 46 °F

Location of Dąbrowa GórniczaLocation

Historic Weather in Dąbrowa Górnicza — Graph

°F

Dąbrowa Górnicza temperature yesterday

Maximum temperature yesterday: 55 °F (at 3:00 PM)
Minimum temperature yesterday: 48 °F (at 3:00 AM)
Average temperature yesterday: 52 °F

Past Weeks' High & Low Weather Summary

 TemperatureHumidityPressure
High75 °F (May 19, 1:00 PM)100% (May 20, 4:30 AM)30.39 "Hg (May 20, 4:30 AM)
Low34 °F (May 15, 3:30 AM)25% (May 12, 2:30 PM)29.74 "Hg (May 14, 6:00 AM)
Average55 °F67%30.04 "Hg
* Reported May 7 2:00 PM — May 22 2:00 PM, Dąbrowa Górnicza, Weather by CustomWeather, © 2015

Note: Actual official high and low records may vary slightly from our data, if they occured in-between our weather recording intervals... More about our weather records

Advertising

Dąbrowa Górnicza weather history for previous 24 hours

 ConditionsComfort  
Time TempWeatherWind HumidityBarometerVisibility
2:00 PM
Fri, May 22
59 °FScattered clouds.9 mph63%30.21 "HgN/A
1:30 PM57 °FPassing clouds.9 mph67%30.24 "HgN/A
1:00 PM59 °FPartly sunny.13 mph63%30.24 "HgN/A
12:30 PM59 °FPartly sunny.9 mph63%30.24 "HgN/A
12:00 PM57 °FBroken clouds.7 mph67%30.24 "HgN/A
11:30 AM59 °FBroken clouds.10 mph68%30.24 "HgN/A
11:00 AM55 °FBroken clouds.8 mph77%30.24 "HgN/A
10:30 AM57 °FBroken clouds.9 mph77%30.24 "HgN/A
10:00 AM55 °FScattered clouds.8 mph82%30.24 "HgN/A
9:30 AM55 °FScattered clouds.9 mph77%30.24 "HgN/A
9:00 AM54 °FScattered clouds.8 mph82%30.24 "HgN/A
8:30 AM54 °FScattered clouds.7 mph77%30.24 "HgN/A
8:00 AM54 °FScattered clouds.6 mph82%30.24 "HgN/A
7:30 AM52 °FScattered clouds.6 mph88%30.24 "HgN/A
7:00 AM50 °FScattered clouds.3 mph100%30.24 "Hg5 mi
6:30 AM50 °FScattered clouds.5 mph94%30.21 "Hg4 mi
6:00 AM50 °FFog.2 mph94%30.21 "Hg1 mi
5:30 AM50 °FFog.3 mph94%30.21 "Hg1 mi
5:00 AM50 °FFog.2 mph94%30.21 "Hg1 mi
4:30 AM50 °FFog.No wind94%30.21 "Hg2 mi
4:00 AM50 °FFog.5 mph94%30.21 "Hg2 mi
3:30 AM50 °FClear.1 mph94%30.21 "Hg4 mi
3:00 AM50 °FFog.1 mph94%30.21 "Hg3 mi
2:30 AM50 °FPassing clouds.2 mph94%30.18 "Hg4 mi
2:00 AM50 °FPassing clouds.2 mph94%30.18 "Hg4 mi
1:30 AM50 °FPassing clouds.3 mph94%30.21 "Hg4 mi
1:00 AM50 °FLight rain. Passing clouds.3 mph100%30.21 "Hg4 mi
12:30 AM50 °FLight rain. Passing clouds.2 mph100%30.21 "Hg4 mi
12:00 AM50 °FSprinkles. Passing clouds.2 mph100%30.21 "Hg4 mi
11:30 PM
Thu, May 21
52 °FSprinkles. Partly cloudy.2 mph94%30.21 "Hg4 mi
11:00 PM50 °FLight rain. Passing clouds.3 mph100%30.18 "Hg5 mi
10:30 PM52 °FLight rain. Passing clouds.3 mph94%30.18 "Hg5 mi
10:00 PM52 °FLight rain. Passing clouds.2 mph94%30.18 "HgN/A
9:30 PM52 °FLight rain. Partly sunny.3 mph94%30.18 "HgN/A
9:00 PM52 °FPassing clouds.3 mph94%30.18 "HgN/A
8:30 PM52 °FPassing clouds.5 mph94%30.18 "HgN/A
8:00 PM54 °FPassing clouds.5 mph88%30.15 "HgN/A
7:30 PM54 °FPassing clouds.5 mph88%30.18 "HgN/A
7:00 PM54 °FLight rain. Passing clouds.3 mph88%30.18 "HgN/A
6:30 PM54 °FLight rain. Partly sunny.3 mph88%30.15 "HgN/A
6:00 PM55 °FPassing clouds.6 mph77%30.15 "HgN/A
5:30 PM55 °FPassing clouds.5 mph77%30.15 "HgN/A
5:00 PM55 °FPassing clouds.6 mph77%30.15 "HgN/A
4:30 PM55 °FScattered clouds.8 mph77%30.15 "HgN/A
4:00 PM55 °FScattered clouds.6 mph77%30.12 "HgN/A
3:30 PM55 °FScattered clouds.8 mph77%30.12 "HgN/A
3:00 PM55 °FPassing clouds.7 mph77%30.12 "HgN/A
Weather by CustomWeather, © 2015

See weather overviewHow to use our weather pages